Glen Ullin Rgnl, Glen Ullin,, ND

8:15 AM MDT on October 23, 2017 (GMT -0600)
Glen Ullin Rgnl, Glen Ullin,

Weather History for KD57 - December, 2013

Change the Weather History Date:

Monday, December 9, 2013

  Actual Average (KDIK) Record (KDIK)
Temperature  
Mean Temperature 2 °F -  
Max Temperature 17 °F 29 °F 62 °F (2015)
Min Temperature -14 °F 10 °F -33 °F (1917)
Degree Days  
Heating Degree Days 64    
Moisture  
Dew Point -8 °F    
Average Humidity 67    
Maximum Humidity 79    
Minimum Humidity 56    
Precipitation  
Precipitation 0.00 in - - ()
Sea Level Pressure  
Sea Level Pressure 29.85 in    
Wind  
Wind Speed 14 mph (West)    
Max Wind Speed 40 mph    
Max Gust Speed 48 mph    
Visibility 8 miles    
Events Rain , Snow    
Averages and records for this station are not official NWS values.
T = Trace of Precipitation, MM = Missing Value Source: NWS Daily Summary

Daily Weather History Graph

Daily Weather History Graph

Search for Another Location

Airport or City:

Trip Planner

Search our weather history database for the weather conditions in past years. The results will help you decide how hot, cold, wet, or windy it might be!

Date:

Astronomy

Dec. 09, 2013 Rise Set
Actual Time 7:20 AM MST 3:59 PM MST
Civil Twilight 6:45 AM MST 4:34 PM MST
Nautical Twilight 6:07 AM MST 5:12 PM MST
Astronomical Twilight 5:30 AM MST 5:49 PM MST
Moon 11:52 AM MST (12/9) No Moon Set
Length of Visible Light 9h 48m
Length of Day
8h 38m
First Quarter, 52% of the Moon is Illuminated
Dec 9
First Quarter
Dec 17
Full
Dec 25
Last Quarter
Jan 1
New
Jan 7
First Quarter

Hourly Weather History & Observations

Time (MST) Temp. Windchill Dew Point Humidity Pressure Visibility Wind Dir Wind Speed Gust Speed Precip Events Conditions
12:15 AM -11.2 °F -30.1 °F -18.4 °F 70% 30.04 in 10.0 mi West 10.4 mph - N/A   Clear
12:35 AM -11.2 °F -31.1 °F -20.2 °F 64% 30.04 in 10.0 mi West 11.5 mph - N/A   Clear
12:55 AM -11.2 °F -27.8 °F -20.2 °F 64% 30.03 in 10.0 mi WNW 8.1 mph - N/A   Clear
1:15 AM -11.2 °F -24.8 °F -20.2 °F 64% 30.04 in 10.0 mi West 5.8 mph - N/A   Clear
1:35 AM -11.2 °F -20.6 °F -20.2 °F 64% 30.04 in 10.0 mi WSW 3.5 mph - N/A   Clear
1:55 AM -13.0 °F -31.3 °F -22.0 °F 64% 30.04 in 10.0 mi West 9.2 mph - N/A   Clear
2:15 AM -11.2 °F -32.1 °F -20.2 °F 64% 30.04 in 10.0 mi West 12.7 mph - N/A   Clear
2:35 AM -11.2 °F -32.1 °F -20.2 °F 64% 30.04 in 10.0 mi West 12.7 mph - N/A   Clear
2:55 AM -11.2 °F -33.7 °F -20.2 °F 64% 30.03 in 10.0 mi West 15.0 mph - N/A   Clear
3:15 AM -13.0 °F -31.3 °F -22.0 °F 64% 30.02 in 10.0 mi West 9.2 mph - N/A   Clear
3:35 AM -13.0 °F -33.4 °F -22.0 °F 64% 30.02 in 10.0 mi WSW 11.5 mph - N/A   Clear
3:55 AM -13.0 °F -31.3 °F -22.0 °F 64% 30.01 in 10.0 mi West 9.2 mph - N/A   Clear
4:15 AM -14.8 °F -32.2 °F -23.8 °F 64% 30.01 in 10.0 mi West 8.1 mph - N/A   Clear
4:35 AM -14.8 °F -33.5 °F -22.0 °F 70% 30.00 in 10.0 mi West 9.2 mph - N/A   Clear
4:55 AM -13.0 °F -31.3 °F -22.0 °F 64% 29.99 in 10.0 mi WNW 9.2 mph - N/A   Clear
5:15 AM -11.2 °F -32.9 °F -20.2 °F 64% 29.99 in 10.0 mi West 13.8 mph - N/A   Clear
5:35 AM -13.0 °F -34.3 °F -22.0 °F 64% 29.99 in 10.0 mi West 12.7 mph - N/A   Clear
5:55 AM -13.0 °F -34.3 °F -22.0 °F 64% 29.97 in 10.0 mi West 12.7 mph - N/A   Clear
6:15 AM -13.0 °F -33.4 °F -22.0 °F 64% 29.96 in 10.0 mi West 11.5 mph - N/A   Clear
6:35 AM -13.0 °F -35.2 °F -22.0 °F 64% 29.94 in 10.0 mi WSW 13.8 mph - N/A   Clear
6:55 AM -13.0 °F -33.4 °F -22.0 °F 64% 29.95 in 10.0 mi WSW 11.5 mph - N/A   Clear
7:15 AM -11.2 °F -32.1 °F -20.2 °F 64% 29.94 in 10.0 mi WSW 12.7 mph - N/A   Clear
7:35 AM -13.0 °F -33.4 °F -22.0 °F 64% 29.95 in 10.0 mi WSW 11.5 mph - N/A   Clear
7:55 AM -11.2 °F -29.0 °F -20.2 °F 64% 29.93 in 10.0 mi SSW 9.2 mph - N/A   Clear
8:15 AM -11.2 °F -23.0 °F -20.2 °F 64% 29.94 in 10.0 mi SW 4.6 mph - N/A   Clear
8:35 AM -11.2 °F -24.8 °F -20.2 °F 64% 29.93 in 10.0 mi West 5.8 mph 12.7 mph N/A   Clear
8:55 AM -7.6 °F -26.6 °F -18.4 °F 59% 29.92 in 10.0 mi WSW 11.5 mph - N/A   Clear
9:15 AM -7.6 °F -24.6 °F -16.6 °F 65% 29.90 in 10.0 mi WSW 9.2 mph - N/A   Clear
9:35 AM -5.8 °F -19.9 °F -14.8 °F 65% 29.89 in 10.0 mi SW 6.9 mph 12.7 mph N/A   Clear
9:55 AM -4.0 °F -12.4 °F -13.0 °F 65% 29.88 in 10.0 mi Variable 3.5 mph - N/A   Clear
10:15 AM -0.4 °F -15.7 °F -11.2 °F 60% 29.87 in 10.0 mi SW 9.2 mph - N/A   Clear
10:35 AM -0.4 °F -17.6 °F -11.2 °F 60% 29.84 in 10.0 mi SW 11.5 mph - N/A   Clear
10:55 AM -0.4 °F -13.4 °F -9.4 °F 66% 29.81 in 10.0 mi SSW 6.9 mph - N/A   Clear
11:15 AM 3.2 °F -15.9 °F -7.6 °F 61% 29.78 in 10.0 mi SSW 16.1 mph - N/A   Clear
11:35 AM 5.0 °F -13.6 °F -7.6 °F 56% 29.76 in 10.0 mi SW 16.1 mph 21.9 mph N/A   Clear
11:55 AM 5.0 °F -15.2 °F -5.8 °F 61% 29.74 in 10.0 mi SW 19.6 mph 26.5 mph N/A   Clear
12:15 PM 6.8 °F -11.3 °F -4.0 °F 61% 29.73 in 10.0 mi SW 16.1 mph 24.2 mph N/A   Partly Cloudy
12:35 PM 8.6 °F -8.3 °F -2.2 °F 62% 29.71 in 1.5 mi SW 15.0 mph 24.2 mph N/A Snow Light Snow
12:55 PM 8.6 °F -10.0 °F -0.4 °F 67% 29.68 in 4.0 mi SW 18.4 mph - N/A   Haze
1:15 PM 10.4 °F -7.7 °F 1.4 °F 67% 29.65 in 3.0 mi SW 18.4 mph 25.3 mph N/A   Haze
1:35 PM 12.2 °F -6.3 °F 3.2 °F 67% 29.63 in 4.0 mi SW 20.7 mph 26.5 mph N/A   Haze
1:55 PM 12.2 °F -5.3 °F 5.0 °F 73% 29.63 in 3.0 mi SW 18.4 mph 28.8 mph N/A   Haze
2:15 PM 12.2 °F -4.3 °F 5.0 °F 73% 29.61 in 1.8 mi SW 16.1 mph 27.6 mph N/A Snow Light Snow
2:35 PM 14.0 °F -3.0 °F 6.8 °F 73% 29.60 in 1.5 mi WSW 18.4 mph 26.5 mph N/A Snow Light Snow
2:55 PM 14.0 °F -3.4 °F 8.6 °F 79% 29.60 in 6.0 mi WSW 19.6 mph - N/A   Haze
3:15 PM 15.8 °F -1.5 °F 8.6 °F 73% 29.60 in 9.0 mi West 20.7 mph 28.8 mph N/A   Overcast
3:35 PM 17.6 °F -0.3 °F 10.4 °F 73% 29.60 in 6.0 mi West 24.2 mph 34.5 mph N/A Snow Light Snow
3:55 PM 17.6 °F -1.3 °F 12.2 °F 79% 29.61 in 2.5 mi WNW 27.6 mph - N/A Snow Light Snow
4:15 PM 17.6 °F -1.9 °F 12.2 °F 79% 29.62 in 1.0 mi WNW 29.9 mph 41.4 mph N/A Snow Light Snow
4:35 PM 17.6 °F -2.5 °F 10.4 °F 73% 29.63 in 1.2 mi NW 32.2 mph 47.2 mph N/A Snow Light Snow
4:55 PM 15.8 °F -3.7 °F 8.6 °F 73% 29.65 in 4.0 mi NW 27.6 mph 38.0 mph N/A Snow Light Snow
5:15 PM 15.8 °F -5.5 °F 8.6 °F 73% 29.66 in 4.0 mi NW 34.5 mph 40.3 mph N/A Rain Light Freezing Rain
5:35 PM 15.8 °F -3.4 °F 10.4 °F 79% 29.67 in 2.0 mi NW 26.5 mph 34.5 mph N/A Rain Light Freezing Rain
5:55 PM 14.0 °F -8.3 °F 8.6 °F 79% 29.69 in 1.0 mi NW 35.7 mph 42.6 mph N/A Snow Light Snow
6:15 PM 12.2 °F -11.8 °F 5.0 °F 73% 29.71 in 0.5 mi NW 40.3 mph 48.3 mph N/A Snow Light Snow
6:35 PM 12.2 °F -11.3 °F 3.2 °F 67% 29.73 in 1.0 mi NW 38.0 mph 47.2 mph N/A   Haze
6:55 PM 10.4 °F -12.0 °F 3.2 °F 73% 29.75 in 3.0 mi NW 31.1 mph 40.3 mph N/A   Haze
7:15 PM 10.4 °F -11.4 °F 1.4 °F 67% 29.77 in 7.0 mi NW 28.8 mph 36.8 mph N/A   Overcast
7:35 PM 8.6 °F -13.4 °F 1.4 °F 73% 29.79 in 7.0 mi NW 27.6 mph 33.4 mph N/A   Overcast
7:55 PM 8.6 °F -13.4 °F -0.4 °F 67% 29.81 in 4.0 mi NW 27.6 mph 40.3 mph N/A   Haze
8:15 PM 6.8 °F -16.2 °F -0.4 °F 72% 29.83 in 4.0 mi NW 28.8 mph 40.3 mph N/A   Haze
8:35 PM 6.8 °F -16.2 °F -2.2 °F 67% 29.84 in 3.0 mi NW 28.8 mph 35.7 mph N/A   Haze
8:55 PM 5.0 °F -17.9 °F -2.2 °F 72% 29.85 in 8.0 mi NW 26.5 mph 38.0 mph N/A   Overcast
9:15 PM 5.0 °F -19.0 °F -4.0 °F 66% 29.85 in 10.0 mi NW 29.9 mph - N/A   Mostly Cloudy
9:35 PM 5.0 °F -18.3 °F -4.0 °F 66% 29.86 in 10.0 mi NW 27.6 mph 35.7 mph N/A   Mostly Cloudy
9:55 PM 3.2 °F -18.6 °F -5.8 °F 66% 29.87 in 10.0 mi NW 21.9 mph 27.6 mph N/A   Overcast
10:15 PM 3.2 °F -18.6 °F -5.8 °F 66% 29.88 in 10.0 mi NW 21.9 mph - N/A   Scattered Clouds
10:35 PM 3.2 °F -17.1 °F -5.8 °F 66% 29.89 in 10.0 mi NW 18.4 mph 25.3 mph N/A   Mostly Cloudy
10:55 PM 1.4 °F -19.9 °F -5.8 °F 72% 29.90 in 10.0 mi NW 19.6 mph - N/A   Mostly Cloudy
11:15 PM 1.4 °F -16.9 °F -5.8 °F 72% 29.91 in 10.0 mi NW 13.8 mph - N/A   Partly Cloudy
11:35 PM 1.4 °F -15.3 °F -7.6 °F 66% 29.91 in 10.0 mi WNW 11.5 mph - N/A   Clear
11:55 PM -0.4 °F -14.7 °F -7.6 °F 72% 29.92 in 10.0 mi WNW 8.1 mph - N/A   Partly Cloudy